Location: Bosdarros
(43.2167°N, 0.3667°W)
Time: 03:43:02
(UTC+00:00)

Ariane Rocket - Pass Details

Date: 22 April 2021
Orbit: 760 x 770 km, 98.7° (Epoch: 15 May)

Event Time Altitude Azimuth Distance (km) Brightness Sun altitude
Exits shadow 19:18:22 - 136° (SE) 2,855 5.4 -5.2°
Reaches altitude 10° 19:19:54 10° 130° (SE) 2,290 4.9 -5.5°
Maximum altitude 19:24:23 33° 67° (ENE) 1,258 3.8 -6.2°
Drops below altitude 10° 19:28:52 10° 4° (N) 2,302 5.8 -7.0°
Sets 19:31:21 0° 355° (N) 3,232 6.7 -7.4°
